FW9176 Weather Reports


time (UTC)temp
C
wind
direction
speed
KPH
gust
KPH
rain 1hr
cm
rain 24hr
cm
rain mn
cm
humidity
%
barometer
mb
20260903161605 31 342 3.2 9.7 0.00 0.00 0.00 66 1012.8
20260903160111 32 0 0.0 3.2 0.00 0.00 0.00 62 1011.8
20260903154600 32 0 0.0 3.2 0.00 0.00 0.00 63 1011.7
20260903153110 31 290 0.0 3.2 0.00 0.00 0.00 64 1011.7
20260903151558 31 271 0.0 4.8 0.00 0.00 0.00 65 1011.7
20260903150058 30 281 0.0 4.8 0.00 0.00 0.00 66 1011.8
20260903144606 30 0 0.0 9.7 0.00 0.00 0.00 66 1011.9
20260903143107 30 296 0.0 4.8 0.00 0.00 0.00 67 1011.7
20260903141601 29 282 0.0 3.2 0.00 0.00 0.00 67 1011.7
20260903140100 28 0 0.0 3.2 0.00 0.00 0.00 68 1011.5
20260903134611 28 0 0.0 4.8 0.00 0.00 0.00 68 1011.6
20260903133111 27 158 0.0 3.2 0.00 0.00 0.00 69 1011.7
20260903131601 27 0 0.0 1.6 0.00 0.00 0.00 71 1011.6
20260903130129 27 0 0.0 3.2 0.00 0.00 0.00 72 1011.6
20260903124624 26 0 0.0 3.2 0.00 0.00 0.00 73 1011.6
20260903123101 26 0 0.0 3.2 0.00 0.00 0.00 73 1011.7
20260903121556 26 0 0.0 1.6 0.00 0.00 0.00 73 1011.7
20260903114600 26 0 0.0 4.8 0.00 0.00 0.00 72 1011.6
20260903113056 26 0 0.0 3.2 0.00 0.00 0.00 72 1011.5
20260903111602 26 0 0.0 1.6 0.00 0.00 0.00 72 1011.4
20260903104604 26 0 0.0 1.6 0.00 0.00 0.00 74 1011.3
20260903103059 26 139 0.0 3.2 0.00 0.00 0.00 75 1011.2
20260903101602 26 0 0.0 6.4 0.00 0.00 0.00 76 1011.2
20260903100100 26 0 0.0 1.6 0.00 0.00 0.00 77 1011.3
20260903094609 26 141 0.0 1.6 0.00 0.00 0.00 78 1011.2
20260903093059 26 0 0.0 1.6 0.00 0.00 0.00 79 1011.0
20260903091600 26 0 0.0 1.6 0.00 0.00 0.00 79 1011.1
20260903090107 26 0 0.0 3.2 0.00 0.00 0.00 79 1011.1
20260903084603 26 0 0.0 1.6 0.00 0.00 0.00 79 1011.0
20260903083114 26 0 0.0 3.2 0.00 0.00 0.00 79 1011.1
20260903081620 26 0 0.0 1.6 0.00 0.00 0.00 79 1011.1
20260903080100 26 0 0.0 0.0 0.00 0.00 0.00 79 1011.0
20260903074610 26 160 0.0 1.6 0.00 0.00 0.00 79 1010.9
20260903073134 26 0 0.0 0.0 0.00 0.00 0.00 78 1010.9
20260903071622 26 0 0.0 0.0 0.00 0.00 0.00 78 1011.0
20260903070100 26 0 0.0 0.0 0.00 0.00 0.00 78 1011.0
20260903064603 27 0 0.0 0.0 0.00 0.00 0.00 78 1011.2
20260903063057 27 0 0.0 0.0 0.00 0.00 0.00 77 1011.2
20260903061604 27 0 0.0 0.0 0.00 0.00 0.00 77 1011.2
20260903060144 27 0 0.0 0.0 0.00 0.00 0.00 77 1011.3
20260903054558 27 0 0.0 0.0 0.00 0.00 0.00 77 1011.1
20260903053058 27 0 0.0 0.0 0.00 0.00 0.00 77 1011.1
20260903051607 27 0 0.0 0.0 0.00 0.00 0.00 76 1011.0
20260903050059 27 0 0.0 0.0 0.00 0.00 0.00 75 1010.9
20260903044604 28 0 0.0 0.0 0.00 0.00 0.00 75 1011.1
20260903043102 28 0 0.0 0.0 0.00 0.00 0.00 74 1011.0
20260903041556 28 0 0.0 0.0 0.00 0.00 0.00 74 1011.0
20260903040105 28 161 0.0 0.0 0.00 0.00 0.00 73 1011.1
20260903034602 28 0 0.0 0.0 0.00 0.00 0.00 73 1010.8
20260903033058 29 150 0.0 1.6 0.00 0.00 0.00 72 1010.9
20260903031604 29 0 0.0 0.0 0.00 0.00 0.00 72 1010.8
20260903024559 29 0 0.0 0.0 0.00 0.00 0.00 72 1010.8
20260903023102 29 0 0.0 3.2 0.00 0.00 0.00 72 1010.9
20260903021607 30 0 0.0 3.2 0.00 0.00 0.00 71 1010.8
20260903020101 30 197 0.0 3.2 0.00 0.00 0.00 70 1010.7
20260903014608 30 0 0.0 4.8 0.00 0.00 0.00 70 1010.6
20260903013056 30 196 0.0 3.2 0.00 0.00 0.00 69 1010.5
20260903011559 31 158 1.6 4.8 0.00 0.00 0.00 68 1010.3
20260903010105 31 0 0.0 6.4 0.00 0.00 0.00 67 1010.3
20260903004600 31 210 0.0 4.8 0.00 0.00 0.00 66 1010.2
20260903003059 32 193 0.0 6.4 0.00 0.00 0.00 64 1010.2
20260903001619 32 0 0.0 1.6 0.00 0.00 0.00 62 1010.3
20260903000101 33 0 0.0 1.6 0.00 0.00 0.00 59 1010.4
20260902234623 33 0 0.0 4.8 0.00 0.00 0.00 58 1010.3
20260902233104 34 0 1.6 12.9 0.00 0.00 0.00 58 1010.3
20260902231613 33 0 0.0 6.4 0.00 0.00 0.00 59 1010.5
20260902230114 33 0 0.0 4.8 0.00 0.00 0.00 58 1010.6
20260902224605 34 0 0.0 3.2 0.00 0.00 0.00 57 1010.6
20260902223101 34 0 0.0 4.8 0.00 0.00 0.00 56 1010.4
20260902221601 34 0 0.0 8.0 0.00 0.00 0.00 55 1010.6
20260902214614 35 280 1.6 4.8 0.00 0.00 0.00 52 1010.5
20260902213100 35 286 0.0 6.4 0.00 0.00 0.00 54 1010.7
20260902211604 35 276 1.6 6.4 0.00 0.00 0.00 52 1010.7
20260902204601 35 290 0.0 6.4 0.00 0.00 0.00 52 1010.7
20260902203109 35 271 0.0 12.9 0.00 0.00 0.00 53 1010.8
20260902201603 35 183 1.6 9.7 0.00 0.00 0.00 52 1011.0
20260902200059 35 175 0.0 6.4 0.00 0.00 0.00 53 1011.0
20260902194558 34 0 0.0 9.7 0.00 0.00 0.00 53 1011.0
20260902193101 35 164 0.0 8.0 0.00 0.00 0.00 53 1011.2
20260902191605 35 0 0.0 6.4 0.00 0.00 0.00 53 1011.4
20260902190108 35 0 1.6 8.0 0.00 0.00 0.00 51 1011.4
20260902184559 35 259 0.0 9.7 0.00 0.00 0.00 51 1011.7
20260902183104 35 0 1.6 9.7 0.00 0.00 0.00 52 1011.7
20260902181605 35 124 1.6 8.0 0.00 0.00 0.00 52 1011.7
20260902180105 34 141 1.6 6.4 0.00 0.00 0.00 53 1011.9
20260902174608 35 0 0.0 6.4 0.00 0.00 0.00 55 1012.0
20260902173105 34 257 0.0 11.3 0.00 0.00 0.00 56 1012.0
20260902171606 33 273 0.0 6.4 0.00 0.00 0.00 59 1012.0
20260902164601 33 281 0.0 9.7 0.00 0.00 0.00 57 1012.4
20260902163106 32 0 0.0 6.4 0.00 0.00 0.00 57 1012.5